Location: Fort Hays State University
(38.8712°N, 99.3432°W)
Time: 05:48:54
(UTC-05:00)

Cosmos 2279 Rocket - Visible Passes

Search period start: 31 August 2015 00:00
Search period end: 10 September 2015 00:00
Orbit: 964 x 980 km, 82.9° (Epoch: 29 August)

Date Brightness Start Highest point End Pass type
(mag) Time Alt. Az. Time Alt. Az. Time Alt. Az.
31 Aug 6.4 05:30:10 10° NNE 05:35:04 25° ENE 05:40:08 10° SE visible
31 Aug 7.0 20:44:20 10° WSW 20:48:52 20° WNW 20:53:12 10° NNW visible
01 Sep 5.3 05:53:53 10° N 05:59:46 44° ENE 06:05:42 10° SSE visible
01 Sep 7.6 21:12:26 10° WNW 21:13:53 11° WNW 21:14:51 10° NW visible
02 Sep 7.2 04:36:53 10° NE 04:37:42 10° ENE 04:39:01 10° ENE visible
02 Sep 4.2 06:18:01 10° N 06:24:16 79° E 06:30:30 10° S visible
03 Sep 6.6 04:58:24 10° NNE 05:02:43 20° ENE 05:07:17 10° ESE visible
03 Sep 4.1 06:42:28 10° NNW 06:48:35 58° W 06:54:40 10° S visible
04 Sep 5.6 05:21:53 10° N 05:27:31 35° ENE 05:33:13 10° SE visible
04 Sep 7.2 20:38:18 10° W 20:41:27 14° WNW 20:44:15 10° NW visible
05 Sep 4.5 05:45:54 10° N 05:52:05 64° E 05:58:16 10° SSE visible
06 Sep 6.7 04:26:49 10° NNE 04:30:22 16° ENE 04:34:13 10° ESE visible
06 Sep 4.0 06:10:14 10° N 06:16:28 73° W 06:22:40 10° S visible
07 Sep 5.9 04:49:58 10° NNE 04:55:14 29° ENE 05:00:36 10° SE visible
07 Sep 4.4 06:34:56 10° NNW 06:40:42 40° W 06:46:25 10° SSW visible
08 Sep 4.8 05:13:49 10° N 05:19:53 51° ENE 05:25:57 10° SSE visible
09 Sep 6.8 03:55:34 10° NE 03:57:58 13° ENE 04:00:46 10° E visible
09 Sep 4.0 05:38:03 10° N 05:44:19 89° W 05:50:35 10° S visible
